User: anonymous   Login
Location: Jasper Marmot Meadows
(52.8392°N, 118.0718°W)
Time: 22:36:15
(UTC-07:00)
Language:

N. Korean satellite - Orbit

View from above orbital plane
View from above orbital plane
View from above satellite
View from above satellite

Ground track
Ground track

The orbit data is extracted from the following two-line orbital elements,

1 39026U 12072A   18349.86949819  .00001463  00000-0  56213-4 0  9996
2 39026  97.2097 354.1050 0039784  40.1014 320.3150 15.27286907333386
Epoch (UTC): 15 December 2018 20:52:04
Eccentricity: 0.0039784
inclination: 97.2097°
perigee height: 456 km
apogee height: 511 km
right ascension of ascending node: 354.1050°
argument of perigee: 40.1014°
revolutions per day: 15.27286907
mean anomaly at epoch: 320.3150°
orbit number at epoch: 33338

The dashed part of the orbit path shows where the satellite is in the earth's shadow,  

DLR